SCP
0 0 0 0 0 0 0 0 0 0 0 0 0 0 0 0 0 0 0 0 0 0 0 0 0 0 0 0 0 0 0 0 0 0 0 0 0 0 0 0 0 0 0 0 0 0 0 0 0
0 0 0 0 0 0 0 0 0 0 0 0 0 0 0 0 0 0 0 0 0 0 0 0 0 0 0 0 0 0 0 0 0 0 0 0 0 0 0 0 0 0 0 0 0 0 0 0 0
0 0 0 0 0 0 0 0 0 0 0 0 0 0 0 0 0 0 0 0 0 0 0 0 0 0 0 0 0 0 0 0 0 0 0 0 0 0 0 0 0 0 0 0 0 0 0 0 0
0 0 0 0 0 0 0 0 0 0 0 0 0 0 0 0 0 0 0 0 0 0 0 0 0 0 0 0 0 0 0 0 0 0 0 0 0 0 0 0 0 0 0 0 0 0 0 0 0
0 0 0 0 0 0 0 0 0 0 0 0 0 0 0 0 0 0 0 0 0 0 0 0 0 0 0 0 0 0 0 0 0 0 0 0 0 0 0 0 0 0 0 0 0 0 0 0 0
0 0 0 0 0 0 0 0 0 0 0 0 0 0 0 0 0 0 0 0 0 0 0 0 0 0 0 0 0 0 0 0 0 0 0 0 0 0 0 0 0 0 0 0 0 0 0 0 0
0 0 0 0 0 0 0 0 0 0 0 0 0 0 0 0 0 0 0 0 0 0 0 0 0 0 0 0 0 0 0 0 0 0 0 0 0 0 0 0 0 0 0 0 0 0 0 0 0
0 0 0 0 0 0 0 0 0 0 0 0 0 0 0 0 0 0 0 0 0 0 0 0 0 0 0 0 0 0 0 0 0 0 0 0 0 0 0 0 0 0 0 0 0 0 0 0 0
0 0 0 0 0 0 0 0 0 0 0 0 0 0 0 0 0 0 0 0 0 0 0 0 0 0 0 0 0 0 0 0 0 0 0 0 0 0 0 0 0 0 0 0 0 0 0 0 0
0 0 0 0 0 0 0 0 0 0 0 0 0 0 0 0 0 0 0 0 0 0 0 0 0 0 0 0 0 0 0 0 0 0 0 0 0 0 0 0 0 0 0 0 0 0 0 0 0
0 0 0 0 0 0 0 0 0 0 0 0 0 0 0 0 0 0 0 0 0 0 0 0 0 0 0 0 0 0 0 0 0 0 0 0 0 0 0 0 0 0 0 0 0 0 0 0 0
0 0 0 0 0 0 0 0 0 0 0 0 0 0 0 0 0 0 0 0 0 0 0 0 0 0 0 0 0 0 0 0 0 0 0 0 0 0 0 0 0 0 0 0 0 0 0 0 0
0 0 0 0 0 0 0 0 0 0 0 0 0 0 0 0 0 0 0 0 0 0 0 0 0 0 0 0 0 0 0 0 0 0 0 0 0 0 0 0 0 0 0 0 0 0 0 0 0
0 0 0 0 0 0 0 0 0 0 0 0 0 0 0 0 0 0 0 0 0 0 0 0 0 0 0 0 0 0 0 0 0 0 0 0 0 0 0 0 0 0 0 0 0 0 0 0 0
0 0 0 0 0 0 0 0 0 0 0 0 0 0 0 0 0 0 0 0 0 0 0 0 0 0 0 0 0 0 0 0 0 0 0 0 0 0 0 0 0 0 0 0 0 0 0 0 0
0 0 0 0 0 0 0 0 0 0 0 0 0 0 0 0 0 0 0 0 0 0 0 0 0 0 0 0 0 0 0 0 0 0 0 0 0 0 0 0 0 0 0 0 0 0 0 0 0
0 0 0 0 0 0 0 0 0 0 0 0 0 0 0 0 0 0 0 0 0 0 0 0 0 0 0 0 0 0 0 0 0 0 0 0 0 0 0 0 0 0 0 0 0 0 0 0 0
0 0 0 0 0 0 0 0 0 0 0 0 0 0 0 0 0 0 0 0 0 0 0 0 0 0 0 0 0 0 0 0 0 0 0 0 0 0 0 0 0 0 0 0 0 0 0 0 0
0 0 0 0 0 0 0 0 0 0 0 0 0 0 0 0 0 0 0 0 0 0 0 0 0 0 0 0 0 0 0 0 0 0 0 0 0 0 0 0 0 0 0 0 0 0 0 0 0
0 0 0 0 0 0 0 0 0 0 0 0 0 0 0 0 0 0 0 0 0 0 0 0 0 0 0 0 0 0 0 0 0 0 0 0 0 0 0 0 0 0 0 0 0 0 0 0 0
0 0 0 0 0 0 0 0 0 0 0 0 0 0 0 0 0 1 1 1 1 1 1 1 1 1 0 0 0 0 0 0 0 0 0 0 0 0 0 0 0 0 0 0 0 0 0 0 0
0 0 0 0 0 0 0 0 0 0 0 0 0 0 0 0 0 1 1 1 1 1 1 1 1 1 1 1 0 0 0 0 0 0 0 0 0 0 0 0 0 0 0 0 0 0 0 0 0
0 0 0 0 0 0 0 0 0 0 0 0 0 0 0 0 0 1 1 1 1 1 1 1 1 1 1 1 1 0 0 0 0 0 0 0 0 0 0 0 0 0 0 0 0 0 0 0 0
0 0 0 0 0 0 0 0 0 0 0 0 0 0 0 0 0 1 1 1 1 1 1 1 1 1 1 1 1 1 0 0 0 0 0 0 0 0 0 0 0 0 0 0 0 0 0 0 0
0 0 0 0 0 0 0 0 0 0 0 0 0 0 0 0 0 1 1 1 1 1 1 1 1 1 1 1 1 1 1 0 0 0 0 0 0 0 0 0 0 0 0 0 0 0 0 0 0
0 0 0 0 0 0 0 0 0 0 0 0 0 0 0 0 0 0 1 1 1 1 1 1 1 1 1 1 1 1 1 0 0 0 0 0 0 0 0 0 0 0 0 0 0 0 0 0 0
0 0 0 0 0 0 0 0 0 0 0 0 0 0 0 0 0 0 1 1 1 1 1 1 1 1 1 1 1 1 1 1 1 0 0 0 0 0 1 1 1 1 1 1 1 0 0 0 0
0 0 0 0 0 0 0 0 0 0 0 0 0 0 0 0 0 0 1 1 1 1 1 1 1 1 1 1 1 1 1 1 1 1 1 1 1 1 1 1 1 1 1 1 1 1 0 0 0
0 0 0 0 0 0 0 0 0 0 0 0 0 0 0 0 0 1 1 1 1 1 1 1 1 1 1 1 1 1 1 1 1 1 1 1 1 1 1 1 1 1 1 1 1 1 0 0 0
0 0 0 0 0 0 0 0 0 0 0 0 0 0 0 0 0 1 1 1 1 1 1 1 1 1 1 1 1 1 1 1 1 1 1 1 1 1 1 1 1 1 1 1 1 1 0 0 1
Wind_Speed
8 6 5 5 6 4 10 8 7 7 6 6 6 5 7 9 8 10 9 11 12 12 14 14 13 13 13 13 13 13 13 14 14 14 14 14 14 15 15 15 15 15 15 15 14 14 14 14 13
4 4 6 6 2 6 9 7 8 9 8 7 6 5 7 9 8 11 11 11 12 13 13 13 14 13 13 13 13 13 13 14 14 14 14 14 14 14 15 15 15 15 15 14 14 13 13 13 13
5 6 6 3 3 7 8 7 9 9 7 5 5 7 7 7 8 9 11 13 12 12 13 14 13 13 13 12 12 12 13 13 13 13 13 13 14 14 14 14 14 14 14 13 13 13 13 12 12
5 6 5 1 9 8 7 7 7 8 7 5 6 8 7 6 6 11 14 13 12 12 14 15 12 13 12 12 12 12 12 13 13 13 13 13 13 13 14 14 14 13 13 12 12 12 12 12 11
6 5 3 6 9 7 6 5 5 5 6 6 6 9 9 7 10 15 14 12 12 12 13 15 12 12 12 11 11 11 12 12 12 12 12 12 12 13 13 13 13 12 12 11 11 11 11 10 10
5 5 3 6 9 7 6 5 5 7 8 7 8 10 8 8 12 13 13 11 11 11 12 14 12 12 11 11 11 11 11 12 12 12 12 12 12 12 12 12 12 11 11 10 10 10 9 9 9
5 2 2 6 8 7 5 3 4 6 7 7 6 9 9 10 12 12 11 10 10 11 11 11 12 12 11 10 10 11 11 11 12 11 11 11 11 11 11 11 11 11 10 9 9 9 9 8 8
5 3 5 5 6 7 6 4 4 4 7 7 5 7 10 13 14 13 12 10 9 9 9 9 10 10 10 11 11 11 11 11 11 11 11 11 11 11 10 11 10 10 9 9 8 8 8 8 7
6 5 5 6 5 7 6 6 5 4 8 6 4 5 13 18 15 14 12 11 10 9 8 8 9 8 8 9 11 10 11 10 10 10 10 9 8 9 8 11 9 9 9 8 8 7 7 7 8
6 3 5 5 4 5 6 5 6 6 8 8 9 11 17 17 16 15 14 13 12 11 9 7 7 8 7 6 7 6 7 7 5 6 7 5 5 5 7 10 8 8 8 8 7 6 6 5 6
3 1 5 4 3 3 4 5 4 5 6 7 11 16 18 17 15 14 13 12 12 11 10 8 7 6 6 5 5 4 3 5 5 6 5 4 4 5 5 5 7 7 7 6 7 6 3 3 3
3 2 1 2 3 2 2 4 4 3 4 6 11 18 19 18 16 14 13 12 11 11 10 9 8 6 5 4 4 4 4 4 4 5 5 4 3 2 3 3 4 4 3 3 2 1 3 2 2
5 3 2 1 3 3 3 4 3 3 5 9 14 17 18 17 15 13 12 11 11 11 10 9 8 7 6 4 3 4 3 4 5 4 4 3 3 3 3 2 2 2 3 3 2 1 2 1 1
3 3 3 3 3 4 5 4 4 5 8 12 15 16 16 16 15 14 12 12 12 11 11 10 9 8 7 5 4 3 4 3 4 4 5 4 3 3 2 3 2 2 2 1 1 2 1 0 1
5 6 6 5 5 4 6 7 6 7 9 12 13 14 15 14 15 14 13 12 12 11 11 10 9 8 7 6 6 4 4 4 4 4 4 4 3 3 2 2 2 2 2 2 2 2 1 2 2
8 9 8 6 5 5 9 6 8 9 11 11 12 13 13 14 14 13 12 11 11 11 11 11 9 10 9 7 5 4 4 4 3 3 4 4 3 3 3 2 2 2 2 2 2 2 1 0 0
10 11 9 8 6 5 8 4 8 8 10 11 11 12 13 13 14 13 13 12 12 11 11 11 10 10 9 8 6 5 4 4 3 3 3 4 4 4 3 2 1 3 2 2 2 2 1 1 1
12 11 10 9 7 7 8 5 6 8 10 10 11 12 12 13 14 14 13 13 12 11 11 11 11 10 9 8 6 5 5 4 4 4 4 5 4 5 4 3 3 3 2 2 1 1 1 1 1
7 9 9 6 4 7 8 6 5 8 10 10 11 11 12 13 13 13 13 13 12 12 12 12 12 11 8 7 7 7 6 5 5 5 6 6 6 5 4 3 3 3 3 3 3 2 3 2 1
9 10 9 6 4 6 7 7 5 7 9 9 10 11 12 13 13 14 14 14 14 14 13 13 13 12 11 8 7 5 5 5 4 4 5 6 6 6 5 5 4 4 3 4 3 3 2 2 2
11 11 9 7 6 7 7 9 9 8 8 9 10 11 11 12 14 14 14 15 15 15 15 12 13 12 12 10 7 6 5 4 5 6 5 6 7 7 6 5 5 4 4 4 4 4 4 3 3
11 7 6 7 9 7 7 8 9 9 10 11 11 11 11 12 12 13 14 15 15 15 14 13 13 13 12 11 10 10 8 7 7 5 5 6 7 7 6 6 5 5 5 4 5 4 3 4 3
6 6 8 8 9 8 8 10 6 8 10 11 11 11 11 11 12 13 14 14 15 15 14 13 14 13 13 12 12 11 10 8 6 6 6 6 6 7 7 6 6 6 5 5 5 3 4 4 4
7 7 6 8 10 12 9 9 6 6 8 8 9 9 10 10 11 11 11 12 13 14 13 13 14 14 13 13 13 12 11 9 8 8 6 6 5 6 7 7 6 6 5 5 5 5 6 5 4
12 11 9 10 10 9 6 9 5 1 3 5 5 7 7 8 9 10 11 12 13 14 14 13 14 14 13 13 13 12 12 10 9 8 7 6 5 5 7 7 6 6 6 6 6 5 5 6 5
16 16 10 8 9 7 7 9 4 2 1 3 4 4 5 7 8 9 10 11 12 13 13 13 14 13 13 13 12 11 11 8 7 8 6 6 5 5 6 7 7 7 7 7 6 6 6 5 5
15 15 11 9 6 6 7 5 5 5 4 4 4 4 4 6 8 9 9 10 11 12 12 13 13 12 12 12 11 10 10 9 7 7 7 6 6 5 6 7 7 7 7 7 6 6 6 5 6
11 12 8 9 8 9 8 8 5 7 6 5 4 3 4 6 7 8 8 9 10 10 11 11 11 11 11 11 10 8 9 9 8 8 8 7 6 5 6 6 7 7 7 7 7 6 6 6 6
12 13 11 10 9 8 6 4 2 3 3 3 2 3 4 5 6 6 7 8 9 9 10 10 10 10 9 9 9 8 8 9 8 8 8 7 7 7 7 7 7 7 7 7 7 7 7 7 6
13 13 14 11 9 8 7 2 5 2 2 2 2 2 3 4 5 6 6 7 8 8 9 9 8 8 8 8 8 8 7 7 7 7 7 7 7 7 7 6 7 7 7 7 7 8 7 7 7
Wind_Direction
230 231 241 243 233 101 78 79 88 96 87 75 71 56 57 41 32 81 109 124 123 120 118 119 108 107 107 107 106 106 107 108 108 107 106 106 105 105 105 108 108 107 106 106 106 106 104 104 105
261 249 240 243 250 94 82 84 88 80 93 107 93 78 71 64 63 105 125 128 130 123 122 114 111 110 109 109 108 108 108 107 108 108 107 107 107 106 105 106 107 106 106 107 108 106 105 105 104
256 249 263 246 62 71 91 91 94 98 105 110 93 64 57 75 102 117 127 137 132 126 119 112 117 113 111 108 107 108 110 109 108 109 109 109 108 107 106 106 106 106 107 108 109 107 106 106 105
258 231 235 172 88 72 86 102 115 125 109 95 106 91 78 79 110 121 132 139 133 126 120 116 120 115 112 109 106 106 109 109 109 109 108 108 108 107 106 106 106 107 107 109 108 106 106 107 108
250 258 200 116 91 92 96 107 132 121 103 101 101 100 90 89 113 127 138 138 133 126 121 121 122 118 114 111 109 109 109 110 109 107 106 108 108 109 108 107 107 108 110 110 108 107 108 109 110
250 250 199 116 104 105 106 124 129 108 107 113 114 109 91 118 130 137 139 141 134 128 123 120 123 121 117 114 112 110 111 112 110 108 108 108 108 110 111 111 111 111 112 111 110 109 112 112 112
285 268 118 115 117 117 106 118 122 118 124 118 120 111 118 139 139 139 138 144 135 132 129 133 135 130 123 116 114 112 112 112 112 112 111 111 109 110 111 111 112 114 114 112 110 110 112 116 116
297 250 149 129 126 110 117 127 106 113 107 116 132 128 143 149 147 143 143 143 136 136 135 136 134 135 138 131 121 117 116 115 115 117 117 117 119 118 121 120 110 113 112 110 109 108 111 116 117
264 235 145 123 120 114 131 138 122 114 125 127 103 95 130 143 150 149 148 148 147 145 142 142 137 140 139 132 129 134 129 127 134 129 131 151 141 130 137 103 114 116 113 108 106 108 119 134 133
253 205 101 85 90 112 139 146 140 153 143 136 124 114 131 148 158 161 162 161 160 156 153 152 146 146 144 134 133 142 140 137 135 123 137 133 112 112 111 113 117 119 120 122 115 129 163 193 143
251 102 100 112 109 122 147 150 161 171 157 156 152 146 151 159 167 170 169 167 163 158 157 157 153 152 146 140 140 130 127 130 131 125 128 121 133 136 134 140 144 145 159 149 145 176 151 116 93
210 140 135 115 115 168 166 161 169 185 94 121 149 153 159 167 173 176 172 170 164 163 164 161 155 155 157 147 138 147 145 143 134 134 157 142 134 132 126 141 139 150 144 124 133 122 101 96 118
206 162 171 178 200 200 192 184 169 159 122 128 142 156 167 172 174 177 174 172 170 169 169 166 163 160 156 155 169 150 146 146 135 144 146 150 149 143 134 136 150 157 134 153 155 135 107 112 132
189 197 196 200 189 188 196 180 180 149 142 145 154 164 173 175 175 176 178 178 179 178 174 169 172 168 167 169 175 158 162 154 155 160 151 168 154 135 146 155 162 159 164 129 153 137 149 168 95
213 206 186 183 184 178 190 193 189 149 156 159 164 168 174 178 180 182 182 184 183 180 176 173 176 175 178 182 184 178 175 172 169 160 160 175 172 154 173 167 183 162 153 158 184 154 173 188 172
206 209 191 161 180 178 219 182 149 157 170 171 171 172 178 181 186 186 184 187 186 182 178 180 181 179 184 189 192 189 185 177 179 177 172 179 183 183 195 194 186 164 187 185 173 206 200 112 261
201 206 190 158 178 190 227 183 139 171 182 180 180 180 184 183 190 188 189 189 188 184 180 184 187 186 188 187 191 200 188 194 196 192 190 184 196 197 205 208 167 198 198 203 232 150 224 193 225
196 200 192 182 170 206 220 204 150 182 195 191 187 186 188 192 193 189 192 190 187 185 184 186 187 189 189 187 189 200 200 201 206 202 203 203 205 205 212 200 191 221 210 207 219 206 227 247 231
213 210 196 176 160 221 225 221 187 189 201 199 194 191 193 199 192 188 191 191 187 187 188 189 192 188 192 193 196 195 197 203 208 212 210 210 215 211 220 226 193 223 222 228 223 221 209 224 200
214 209 193 170 177 233 232 230 204 198 210 209 203 198 197 194 192 190 190 191 192 190 192 192 196 195 198 197 201 204 205 205 209 218 213 217 214 217 215 219 221 215 225 224 227 228 245 223 205
212 215 204 190 183 218 240 231 209 199 211 213 212 208 205 200 196 193 194 195 194 193 194 195 197 197 202 197 197 197 198 214 209 210 211 216 217 217 226 224 232 227 233 224 226 226 233 236 226
205 211 217 207 219 212 225 243 201 198 206 211 211 209 209 204 202 198 197 196 198 197 194 195 196 199 199 199 205 206 209 213 214 215 213 209 213 220 219 223 227 230 236 231 229 218 230 237 235
209 191 213 220 232 240 216 251 212 191 215 212 209 209 210 208 205 202 200 196 197 196 195 195 196 199 198 203 207 213 220 218 215 213 214 217 214 220 220 220 223 226 231 233 241 230 240 230 237
180 178 193 224 236 235 226 242 235 200 219 218 206 206 209 209 206 200 197 193 195 196 196 195 195 199 199 202 209 215 221 221 220 214 212 215 214 215 217 219 220 226 229 224 226 226 227 237 238
198 196 196 205 215 226 199 236 242 188 219 240 229 212 207 203 200 194 192 190 191 195 196 196 195 197 199 202 208 213 219 220 220 221 217 222 221 212 212 219 220 224 222 223 223 220 232 227 224
205 215 223 218 214 199 185 231 226 175 216 236 234 225 210 195 193 192 190 190 189 191 194 195 193 195 196 201 206 212 215 218 218 218 224 221 229 226 215 217 220 222 221 219 214 224 223 221 225
201 220 239 253 243 230 198 213 220 194 203 202 198 195 193 188 188 187 184 186 185 189 192 194 191 192 194 199 201 205 210 216 217 214 220 226 226 225 218 217 220 222 219 219 216 225 226 223 226
220 209 212 235 232 230 216 221 217 182 196 187 186 179 169 172 178 181 180 180 182 184 186 188 191 193 194 197 201 202 205 209 212 218 219 224 226 229 223 220 219 219 217 215 217 220 218 222 225
198 206 217 225 239 243 225 201 167 203 183 175 146 148 157 162 163 168 173 173 176 177 178 183 185 187 191 200 201 204 205 206 208 213 218 218 220 220 221 221 221 219 218 215 215 222 215 220 223
209 209 211 217 218 243 256 164 107 157 178 168 141 137 144 151 148 151 159 160 165 168 170 173 177 181 187 193 198 202 203 205 207 211 215 215 217 220 219 218 221 222 218 216 216 221 219 222 224